User: anonymous
Location: Unspecified
(0.0000°N, 0.0000°E)
Time: 13:28:27
(UTC+02:00)
Language:

Ariane H10 - Orbit

View from above orbital plane
View from above orbital plane
View from above satellite
View from above satellite

Ground track
Ground track

The orbit data is extracted from the following two-line orbital elements,

1 19622U 88098B   14211.69696166  .00003830  00000-0  10114-2 0  8320
2 19622 003.8575 152.5393 6470516 282.6772 011.0929 03.35105560268434
Epoch (UTC): 30 July 2014 16:43:37
Eccentricity: 0.6470516
inclination: 3.8575°
perigee height: 279 km
apogee height: 24690 km
right ascension of ascending node: 152.5393°
argument of perigee: 282.6772°
revolutions per day: 3.35105560
mean anomaly at epoch: 11.0929°
orbit number at epoch: 26843

The dashed part of the orbit path shows where the satellite is in the earth's shadow,  

DLR